GW5985 Weather Reports


time (UTC)temp
C
wind
direction
speed
KPH
gust
KPH
rain 1hr
cm
rain 24hr
cm
rain mn
cm
humidity
%
barometer
mb
20260507190132 31 91 14.5 17.7 0.00 0.00 0.00 76 1016.9
20260507185630 32 90 1.6 3.2 0.00 0.00 0.00 67 1016.8
20260507185126 33 114 1.6 3.2 0.00 0.00 0.00 68 1016.8
20260507184624 32 146 1.6 3.2 0.00 0.00 0.00 69 1016.8
20260507184122 31 123 4.8 4.8 0.00 0.00 0.00 74 1017.0
20260507183618 31 3 6.4 8.0 0.00 0.00 0.00 72 1017.0
20260507183115 32 1 8.0 9.7 0.00 0.00 0.00 71 1016.9
20260507182611 30 252 3.2 4.8 0.00 0.00 0.00 75 1017.1
20260507182107 31 20 4.8 11.3 0.00 0.00 0.00 75 1017.3
20260507181605 32 267 4.8 8.0 0.00 0.00 0.00 72 1017.5
20260507181101 31 113 1.6 4.8 0.00 0.00 0.00 73 1017.3
20260507180558 31 167 6.4 14.5 0.00 0.00 0.00 74 1017.3
20260507180054 30 138 3.2 4.8 0.00 0.00 0.00 79 1017.5
20260507175550 30 95 1.6 3.2 0.00 0.00 0.00 80 1017.5
20260507175048 30 21 4.8 9.7 0.00 0.00 0.00 77 1017.5
20260507174545 30 51 4.8 8.0 0.00 0.00 0.00 75 1017.6
20260507174043 30 89 1.6 3.2 0.00 0.00 0.00 76 1017.6
20260507173539 30 134 1.6 4.8 0.00 0.00 0.00 75 1018.0
20260507173037 30 88 3.2 4.8 0.00 0.00 0.00 75 1017.9
20260507172532 30 40 4.8 4.8 0.00 0.00 0.00 75 1017.9
20260507172029 30 89 0.0 3.2 0.00 0.00 0.00 76 1018.0
20260507171524 30 150 1.6 3.2 0.00 0.00 0.00 74 1018.0
20260507171022 32 352 4.8 16.1 0.00 0.00 0.00 73 1018.0
20260507170519 31 1 6.4 8.0 0.00 0.00 0.00 71 1017.9
20260507170016 31 85 1.6 11.3 0.00 0.00 0.00 72 1018.1
20260507165512 31 139 1.6 1.6 0.00 0.00 0.00 73 1017.8
20260507165008 31 131 0.0 1.6 0.00 0.00 0.00 71 1018.3
20260507164505 32 124 1.6 3.2 0.00 0.00 0.00 69 1018.2
20260507164001 34 141 0.0 3.2 0.00 0.00 0.00 63 1018.5
20260507163459 34 82 3.2 3.2 0.00 0.00 0.00 64 1018.2
20260507162956 32 127 0.0 3.2 0.00 0.00 0.00 67 1018.4
20260507162451 33 330 3.2 8.0 0.00 0.00 0.00 67 1018.5
20260507161948 33 25 1.6 4.8 0.00 0.00 0.00 66 1018.7
20260507161444 32 122 1.6 4.8 0.00 0.00 0.00 68 1018.6
20260507160942 32 356 4.8 4.8 0.00 0.00 0.00 68 1019.0
20260507160437 31 105 3.2 4.8 0.00 0.00 0.00 71 1018.9
20260507155933 31 90 3.2 4.8 0.00 0.00 0.00 73 1018.8
20260507155430 30 25 1.6 3.2 0.00 0.00 0.00 75 1018.8
20260507154927 30 124 0.0 3.2 0.00 0.00 0.00 74 1018.8
20260507154423 30 133 0.0 1.6 0.00 0.00 0.00 75 1018.7
20260507153921 30 141 1.6 8.0 0.00 0.00 0.00 75 1018.9
20260507153417 30 103 3.2 4.8 0.00 0.00 0.00 73 1018.9
20260507152914 31 130 0.0 1.6 0.00 0.00 0.00 74 1018.9
20260507152410 31 140 1.6 8.0 0.00 0.00 0.00 75 1019.0
20260507151906 31 137 0.0 3.2 0.00 0.00 0.00 73 1019.0
20260507151402 31 149 3.2 3.2 0.00 0.00 0.00 71 1019.0
20260507150859 32 133 1.6 4.8 0.00 0.00 0.00 69 1019.0
20260507150356 31 140 0.0 4.8 0.00 0.00 0.00 72 1019.0
20260507145852 32 133 3.2 11.3 0.00 0.00 0.00 71 1019.1
20260507145349 32 150 3.2 8.0 0.00 0.00 0.00 69 1019.0
20260507144846 31 96 1.6 4.8 0.00 0.00 0.00 71 1019.4
20260507144343 31 129 0.0 4.8 0.00 0.00 0.00 74 1019.2
20260507143840 31 150 0.0 1.6 0.00 0.00 0.00 70 1019.3
20260507143337 30 126 1.6 3.2 0.00 0.00 0.00 73 1019.4
20260507142833 30 123 0.0 0.0 0.00 0.00 0.00 74 1019.0
20260507142329 31 125 0.0 1.6 0.00 0.00 0.00 70 1019.3
20260507141826 32 170 3.2 4.8 0.00 0.00 0.00 68 1019.2
20260507141323 31 136 0.0 3.2 0.00 0.00 0.00 69 1019.1
20260507140819 31 175 3.2 3.2 0.00 0.00 0.00 70 1019.3
20260507140316 31 124 0.0 1.6 0.00 0.00 0.00 68 1019.2
20260507135814 31 111 1.6 3.2 0.00 0.00 0.00 70 1019.0
20260507135311 31 122 3.2 4.8 0.00 0.00 0.00 69 1019.2
20260507134808 32 133 1.6 4.8 0.00 0.00 0.00 66 1019.2
20260507134304 31 124 1.6 3.2 0.00 0.00 0.00 69 1019.2
20260507133800 31 118 4.8 11.3 0.00 0.00 0.00 71 1018.9
20260507133256 31 114 0.0 4.8 0.00 0.00 0.00 69 1018.9
20260507132754 32 118 1.6 1.6 0.00 0.00 0.00 65 1019.1
20260507132250 32 130 1.6 3.2 0.00 0.00 0.00 67 1019.1
20260507131748 31 143 3.2 3.2 0.00 0.00 0.00 69 1018.9
20260507131244 30 124 1.6 8.0 0.00 0.00 0.00 71 1018.9
20260507130741 31 142 3.2 3.2 0.00 0.00 0.00 69 1019.1
20260507130239 31 130 4.8 4.8 0.00 0.00 0.00 70 1019.1
20260507125737 30 129 0.0 1.6 0.00 0.00 0.00 72 1019.1
20260507125235 29 144 1.6 3.2 0.00 0.00 0.00 77 1019.0
20260507124731 28 136 0.0 4.8 0.00 0.00 0.00 78 1018.9
20260507124228 29 132 1.6 3.2 0.00 0.00 0.00 78 1019.1
20260507123727 29 148 1.6 4.8 0.00 0.00 0.00 78 1018.8
20260507123224 31 142 6.4 9.7 0.00 0.00 0.00 71 1018.9
20260507122719 31 125 0.0 1.6 0.00 0.00 0.00 70 1018.8
20260507122215 30 127 3.2 3.2 0.00 0.00 0.00 73 1018.7
20260507121711 30 121 1.6 4.8 0.00 0.00 0.00 73 1018.5
20260507121207 30 122 0.0 1.6 0.00 0.00 0.00 69 1018.5
20260507120703 30 124 0.0 0.0 0.00 0.00 0.00 73 1018.4
20260507120200 29 124 0.0 0.0 0.00 0.00 0.00 78 1018.3
20260507115656 28 132 0.0 0.0 0.00 0.00 0.00 80 1018.2
20260507115152 28 124 0.0 0.0 0.00 0.00 0.00 80 1018.4
20260507114648 27 123 0.0 0.0 0.00 0.00 0.00 80 1018.2
20260507114145 27 128 0.0 0.0 0.00 0.00 0.00 81 1018.1
20260507113643 26 133 0.0 1.6 0.00 0.00 0.00 85 1018.1
20260507113139 26 128 0.0 1.6 0.00 0.00 0.00 85 1018.3
20260507112637 25 126 0.0 1.6 0.00 0.00 0.00 88 1018.1
20260507112134 24 121 0.0 0.0 0.00 0.00 0.00 91 1018.2
20260507111631 23 124 0.0 0.0 0.00 0.00 0.00 92 1018.2
20260507111128 23 129 0.0 0.0 0.00 0.00 0.00 93 1018.1
20260507110624 23 110 1.6 3.2 0.00 0.00 0.00 94 1018.0
20260507110121 23 130 0.0 0.0 0.00 0.00 0.00 93 1018.1
20260507105617 23 144 0.0 0.0 0.00 0.00 0.00 94 1018.0
20260507105113 22 128 0.0 0.0 0.00 0.00 0.00 96 1017.8
20260507104611 22 130 0.0 0.0 0.00 0.00 0.00 97 1018.0
20260507104107 22 180 3.2 4.8 0.00 0.00 0.00 97 1017.9
20260507103603 22 140 0.0 0.0 0.00 0.00 0.00 98 1018.0
20260507103100 22 124 0.0 0.0 0.00 0.00 0.00 98 1017.6
20260507102557 22 115 0.0 0.0 0.00 0.00 0.00 97 1017.8
20260507102053 22 125 0.0 0.0 0.00 0.00 0.00 97 1017.5
20260507101548 22 135 0.0 0.0 0.00 0.00 0.00 97 1017.7
20260507101045 22 119 0.0 0.0 0.00 0.00 0.00 96 1017.5
20260507100542 22 104 0.0 0.0 0.00 0.00 0.00 96 1017.6
20260507100041 22 100 0.0 1.6 0.00 0.00 0.00 98 1017.7
20260507095538 22 118 0.0 0.0 0.00 0.00 0.00 98 1017.6
20260507095035 22 120 0.0 0.0 0.00 0.00 0.00 97 1017.7
20260507094531 22 121 0.0 0.0 0.00 0.00 0.00 97 1017.6
20260507094028 22 126 0.0 0.0 0.00 0.00 0.00 96 1017.4
20260507093525 22 126 0.0 0.0 0.00 0.00 0.00 95 1017.4
20260507093024 22 127 0.0 0.0 0.00 0.00 0.00 95 1017.4
20260507092520 23 112 0.0 0.0 0.00 0.00 0.00 92 1017.4
20260507092017 23 136 1.6 3.2 0.00 0.00 0.00 90 1017.3
20260507091514 23 131 1.6 4.8 0.00 0.00 0.00 90 1017.4
20260507091010 23 100 4.8 4.8 0.00 0.00 0.00 92 1017.4
20260507090505 22 151 4.8 4.8 0.00 0.00 0.00 96 1017.3
20260507090002 22 146 1.6 3.2 0.00 0.00 0.00 99 1017.4
20260507085459 22 140 0.0 0.0 0.00 0.00 0.00 99 1017.5
20260507084956 22 124 0.0 0.0 0.00 0.00 0.00 99 1017.3
20260507084453 22 120 0.0 0.0 0.00 0.00 0.00 99 1017.6
20260507083950 22 119 0.0 0.0 0.00 0.00 0.00 99 1017.5
20260507083446 22 132 0.0 0.0 0.00 0.00 0.00 99 1017.7
20260507082943 22 131 0.0 0.0 0.00 0.00 0.00 99 1017.6
20260507082439 22 128 0.0 0.0 0.00 0.00 0.00 99 1017.3
20260507081935 22 128 0.0 0.0 0.00 0.00 0.00 99 1017.4
20260507081432 22 125 0.0 0.0 0.00 0.00 0.00 99 1017.7
20260507080929 23 119 0.0 0.0 0.00 0.00 0.00 99 1017.7
20260507080425 22 119 0.0 0.0 0.00 0.00 0.00 99 1017.6
20260507075920 22 119 0.0 0.0 0.00 0.00 0.00 99 1017.6
20260507075417 22 123 0.0 0.0 0.00 0.00 0.00 99 1017.5
20260507074914 22 123 0.0 0.0 0.00 0.00 0.00 99 1017.5
20260507074410 22 120 0.0 0.0 0.00 0.00 0.00 99 1017.7
20260507073908 23 119 0.0 0.0 0.00 0.00 0.00 99 1017.7
20260507073404 23 109 0.0 0.0 0.00 0.00 0.00 99 1017.6
20260507072901 23 129 0.0 0.0 0.00 0.00 0.00 99 1017.8
20260507072359 23 115 0.0 0.0 0.00 0.00 0.00 99 1017.8
20260507071856 23 116 0.0 0.0 0.00 0.00 0.00 99 1017.6
20260507071353 23 123 0.0 0.0 0.00 0.00 0.00 99 1017.8
20260507070849 23 127 0.0 0.0 0.00 0.00 0.00 99 1017.8
20260507070347 23 130 0.0 0.0 0.00 0.00 0.00 99 1017.9
20260507065843 23 134 0.0 0.0 0.00 0.00 0.00 99 1017.8
20260507065340 23 131 0.0 0.0 0.00 0.00 0.00 99 1017.6
20260507064837 23 120 0.0 0.0 0.00 0.00 0.00 99 1017.8
20260507064336 23 130 0.0 0.0 0.00 0.00 0.00 99 1017.9
20260507063833 23 131 0.0 0.0 0.00 0.00 0.00 99 1018.3
20260507063330 23 120 0.0 0.0 0.00 0.00 0.00 99 1018.2
20260507062826 23 120 0.0 0.0 0.00 0.00 0.00 99 1018.1
20260507062323 23 118 0.0 0.0 0.00 0.00 0.00 99 1018.3
20260507061822 23 107 1.6 1.6 0.00 0.00 0.00 99 1018.5
20260507061319 23 125 0.0 1.6 0.00 0.00 0.00 99 1018.2
20260507060818 24 190 4.8 4.8 0.00 0.00 0.00 99 1018.3
20260507060314 24 129 0.0 0.0 0.00 0.00 0.00 99 1018.4
20260507055811 24 130 0.0 1.6 0.00 0.00 0.00 99 1018.4
20260507055306 24 119 0.0 0.0 0.00 0.00 0.00 99 1018.3
20260507054802 25 122 0.0 0.0 0.00 0.00 0.00 99 1018.5
20260507054259 25 129 0.0 0.0 0.00 0.00 0.00 99 1018.7
20260507053756 25 128 0.0 0.0 0.00 0.00 0.00 99 1018.8
20260507053254 25 120 0.0 0.0 0.00 0.00 0.00 99 1018.9
20260507052753 25 114 0.0 0.0 0.00 0.00 0.00 99 1018.9
20260507052249 25 130 0.0 0.0 0.00 0.00 0.00 99 1019.0
20260507051747 25 134 0.0 0.0 0.00 0.00 0.00 99 1019.2
20260507051243 25 118 0.0 0.0 0.00 0.00 0.00 99 1019.0
20260507050740 25 122 0.0 0.0 0.00 0.00 0.00 99 1019.3
20260507050237 25 118 0.0 0.0 0.00 0.00 0.00 99 1019.3
20260507045734 25 126 0.0 0.0 0.00 0.00 0.00 99 1019.5
20260507045230 25 122 0.0 0.0 0.00 0.00 0.00 98 1019.4
20260507044727 25 122 0.0 0.0 0.00 0.00 0.00 98 1019.7
20260507044224 25 122 0.0 0.0 0.00 0.00 0.00 97 1019.5
20260507043720 25 122 0.0 0.0 0.00 0.00 0.00 98 1019.5
20260507043217 25 122 0.0 0.0 0.00 0.00 0.00 97 1019.8
20260507042714 25 121 0.0 0.0 0.00 0.00 0.00 97 1019.7
20260507042208 25 126 0.0 0.0 0.00 0.00 0.00 97 1019.6
20260507041706 25 121 0.0 0.0 0.00 0.00 0.00 97 1019.8
20260507041202 25 121 0.0 0.0 0.00 0.00 0.00 97 1020.0
20260507040659 25 119 0.0 0.0 0.00 0.00 0.00 97 1019.8
20260507040155 25 125 0.0 0.0 0.00 0.00 0.00 97 1019.7
20260507035651 25 125 0.0 0.0 0.00 0.00 0.00 97 1020.0
20260507035148 25 125 0.0 0.0 0.00 0.00 0.00 97 1019.9
20260507034644 25 128 0.0 0.0 0.00 0.00 0.00 96 1020.1
20260507034142 25 128 0.0 0.0 0.00 0.00 0.00 97 1020.3
20260507033640 25 123 0.0 0.0 0.00 0.00 0.00 97 1020.0
20260507033137 25 123 0.0 0.0 0.00 0.00 0.00 97 1020.2
20260507032635 25 123 0.0 0.0 0.00 0.00 0.00 97 1020.2
20260507032130 25 123 0.0 0.0 0.00 0.00 0.00 98 1020.1
20260507031627 25 121 0.0 0.0 0.00 0.00 0.00 98 1020.3
20260507031124 25 122 0.0 0.0 0.00 0.00 0.00 98 1020.2
20260507030621 25 122 0.0 0.0 0.00 0.00 0.00 98 1020.3
20260507030119 25 122 0.0 0.0 0.00 0.00 0.00 98 1020.3
20260507025616 25 128 0.0 0.0 0.00 0.00 0.00 97 1020.2
20260507025112 25 119 0.0 0.0 0.00 0.00 0.00 97 1020.5
20260507024611 25 120 0.0 0.0 0.00 0.00 0.00 96 1020.2
20260507024108 25 119 0.0 0.0 0.00 0.00 0.00 96 1020.3
20260507023603 25 119 0.0 0.0 0.00 0.00 0.00 96 1020.4
20260507023101 26 119 0.0 0.0 0.00 0.00 0.00 95 1020.1
20260507022557 26 118 0.0 0.0 0.00 0.00 0.00 95 1020.2
20260507022052 26 127 0.0 0.0 0.00 0.00 0.00 95 1020.0
20260507021549 26 122 0.0 0.0 0.00 0.00 0.00 95 1020.1
20260507021045 26 121 0.0 0.0 0.00 0.00 0.00 94 1020.1
20260507020543 26 116 0.0 0.0 0.00 0.00 0.00 94 1020.0
20260507020039 26 118 0.0 0.0 0.00 0.00 0.00 94 1019.9
20260507015538 26 107 1.6 1.6 0.00 0.00 0.00 93 1019.8
20260507015035 26 119 0.0 1.6 0.00 0.00 0.00 92 1019.8
20260507014531 26 129 1.6 3.2 0.00 0.00 0.00 92 1019.9
20260507014027 26 129 0.0 0.0 0.00 0.00 0.00 92 1019.8
20260507013524 26 122 0.0 0.0 0.00 0.00 0.00 93 1019.7
20260507013021 26 122 0.0 0.0 0.00 0.00 0.00 92 1019.9
20260507012518 26 122 0.0 0.0 0.00 0.00 0.00 92 1019.8
20260507012015 26 126 0.0 1.6 0.00 0.00 0.00 92 1019.8
20260507011512 26 135 1.6 3.2 0.00 0.00 0.00 92 1019.5
20260507011008 26 139 1.6 1.6 0.00 0.00 0.00 92 1019.5
20260507010502 26 130 0.0 1.6 0.00 0.00 0.00 91 1019.4
20260507005959 26 121 0.0 0.0 0.00 0.00 0.00 91 1019.6
20260507005457 26 122 0.0 0.0 0.00 0.00 0.00 91 1019.6
20260507004953 26 119 1.6 4.8 0.00 0.00 0.00 91 1019.4
20260507004450 26 115 1.6 3.2 0.00 0.00 0.00 90 1019.3
20260507003948 26 122 0.0 3.2 0.00 0.00 0.00 90 1019.1
20260507003442 26 91 1.6 3.2 0.00 0.00 0.00 89 1019.4
20260507002938 26 103 1.6 4.8 0.00 0.00 0.00 89 1019.6
20260507002434 27 99 1.6 1.6 0.00 0.00 0.00 89 1019.1
20260507001931 27 101 1.6 3.2 0.00 0.00 0.00 88 1019.4
20260507001428 27 112 0.0 1.6 0.00 0.00 0.00 88 1019.4
20260507000926 27 115 0.0 3.2 0.00 0.00 0.00 87 1019.0
20260507000421 27 125 0.0 1.6 0.00 0.00 0.00 86 1019.0
20260506235917 27 119 0.0 1.6 0.00 0.00 0.00 86 1019.3
20260506235415 27 137 0.0 3.2 0.00 0.00 0.00 85 1019.1
20260506234909 27 103 3.2 3.2 0.00 0.00 0.00 84 1019.0
20260506234408 27 117 1.6 1.6 0.00 0.00 0.00 84 1018.9
20260506233905 27 117 1.6 3.2 0.00 0.00 0.00 83 1018.9
20260506233401 27 118 0.0 1.6 0.00 0.00 0.00 83 1018.8
20260506232858 27 121 0.0 0.0 0.00 0.00 0.00 84 1019.0
20260506232354 27 119 0.0 0.0 0.00 0.00 0.00 83 1018.7
20260506231850 27 76 3.2 4.8 0.00 0.00 0.00 84 1018.7
20260506231348 27 122 0.0 0.0 0.00 0.00 0.00 85 1018.4
20260506230845 27 119 0.0 0.0 0.00 0.00 0.00 84 1018.6
20260506230342 28 127 0.0 3.2 0.00 0.00 0.00 83 1018.4
20260506225838 28 127 0.0 0.0 0.00 0.00 0.00 83 1018.3
20260506225336 28 134 0.0 4.8 0.00 0.00 0.00 83 1018.4
20260506224832 28 134 0.0 0.0 0.00 0.00 0.00 83 1018.2
20260506224330 28 131 0.0 3.2 0.00 0.00 0.00 82 1018.1
20260506223826 28 149 1.6 3.2 0.00 0.00 0.00 83 1018.2
20260506223321 28 112 0.0 4.8 0.00 0.00 0.00 82 1018.0
20260506222819 28 126 0.0 1.6 0.00 0.00 0.00 82 1017.9
20260506222314 28 114 3.2 4.8 0.00 0.00 0.00 82 1017.8
20260506221812 28 163 1.6 3.2 0.00 0.00 0.00 82 1017.8
20260506221310 28 122 0.0 1.6 0.00 0.00 0.00 81 1017.9
20260506220807 28 117 1.6 3.2 0.00 0.00 0.00 81 1017.8
20260506220302 28 53 3.2 4.8 0.00 0.00 0.00 80 1017.6
20260506215759 28 94 3.2 8.0 0.00 0.00 0.00 80 1017.8
20260506215254 29 39 3.2 4.8 0.00 0.00 0.00 79 1017.7
20260506214750 29 102 1.6 1.6 0.00 0.00 0.00 79 1017.6
20260506214248 29 130 4.8 4.8 0.00 0.00 0.00 78 1017.7
20260506213746 29 106 4.8 4.8 0.00 0.00 0.00 78 1017.6
20260506213243 29 128 0.0 1.6 0.00 0.00 0.00 78 1017.5
20260506212740 30 72 1.6 3.2 0.00 0.00 0.00 77 1017.3
20260506212236 30 109 1.6 11.3 0.00 0.00 0.00 77 1017.2
20260506211731 30 112 4.8 4.8 0.00 0.00 0.00 75 1017.2
20260506211228 30 22 4.8 8.0 0.00 0.00 0.00 74 1017.0
20260506210725 30 48 1.6 4.8 0.00 0.00 0.00 74 1017.3
20260506210222 30 112 1.6 4.8 0.00 0.00 0.00 75 1017.4
20260506205719 30 105 3.2 4.8 0.00 0.00 0.00 74 1017.3
20260506205214 30 59 6.4 9.7 0.00 0.00 0.00 73 1017.2
20260506204711 31 127 3.2 4.8 0.00 0.00 0.00 72 1017.4
20260506204209 30 116 0.0 4.8 0.00 0.00 0.00 73 1017.3
20260506203707 30 71 4.8 4.8 0.00 0.00 0.00 73 1017.2
20260506203204 30 119 1.6 3.2 0.00 0.00 0.00 72 1017.3
20260506202701 31 109 3.2 9.7 0.00 0.00 0.00 71 1017.2
20260506202157 31 92 4.8 8.0 0.00 0.00 0.00 70 1017.4
20260506201654 30 78 4.8 8.0 0.00 0.00 0.00 71 1017.2
20260506201150 31 80 6.4 8.0 0.00 0.00 0.00 71 1017.4
20260506200647 30 113 3.2 4.8 0.00 0.00 0.00 72 1017.2
20260506200144 31 84 9.7 11.3 0.00 0.00 0.00 70 1017.3
20260506195641 31 49 4.8 9.7 0.00 0.00 0.00 68 1017.3
20260506195137 30 86 0.0 4.8 0.00 0.00 0.00 71 1017.4
20260506194635 31 118 3.2 8.0 0.00 0.00 0.00 70 1017.3
20260506194131 31 47 4.8 8.0 0.00 0.00 0.00 67 1017.3
20260506193629 33 77 3.2 8.0 0.00 0.00 0.00 63 1017.3
20260506193126 32 122 1.6 8.0 0.00 0.00 0.00 65 1017.3
20260506192622 33 128 3.2 3.2 0.00 0.00 0.00 63 1017.4
20260506192118 32 321 3.2 4.8 0.00 0.00 0.00 66 1017.6
20260506191615 33 117 1.6 3.2 0.00 0.00 0.00 63 1017.4
20260506191111 32 83 0.0 8.0 0.00 0.00 0.00 63 1017.7
20260506190609 31 122 1.6 3.2 0.00 0.00 0.00 65 1017.5